Regional Weather Roundup
Issued by NWS Cleveland, OH

Home | Current Version | Previous Version | Graphics & Text | Print | Product List | Glossary On
Versions: 1 2 3 4 5 6 7 8 9 10 11 12 13 14 15 16 17 18 19 20 21 22 23 24 25 26 27 28 29 30 31 32 33 34 35 36 37 38 39 40 41 42 43 44 45 46 47 48 49 50
000
ASUS41 KCLE 011610
RWRCLE
OHIO REGIONAL WEATHER ROUNDUP
NATIONAL WEATHER SERVICE WILMINGTON, OH
1200 PM EDT WED APR 01 2015

NOTE: "FAIR" INDICATES FEW OR NO CLOUDS BELOW 12,000 FEET WITH NO
SIGNIFICANT WEATHER AND/OR OBSTRUCTIONS TO VISIBILITY.

OHZ001>008-015>018-024>027-034-035-043-044-011700-
   NORTHWEST OHIO

CITY           SKY/WX    TMP DP  RH WIND       PRES   REMARKS
DEFIANCE       SUNNY     53  37  54 SW8       30.14S
FINDLAY        SUNNY     53  36  52 W13       30.13S
TOLEDO EXPRESS SUNNY     51  36  56 SW9       30.13R
TOLEDO EXEC    SUNNY     50  36  58 SW13      30.15R
LIMA           SUNNY     54  36  50 W12       30.14S
$$

OHZ009>014-019>023-028>033-038-089-011700-
   NORTHEAST OHIO

CITY           SKY/WX    TMP DP  RH WIND       PRES   REMARKS
CLE-HOPKINS    PTSUNNY   46  32  58 SW10      30.18R
CLE-LAKEFRONT  CLOUDY    39  31  72 W5        30.15S
CUY CO. ARPT   CLOUDY    45  34  65 NW9       30.16R
LORAIN-ELYRIA  CLOUDY    47  35  63 W7        30.15S
ASHTABULA      CLOUDY    39  31  72 CALM      30.17R
AKRON-CANTON   PTSUNNY   46  28  49 SW8       30.15R
WOOSTER        PTSUNNY   48  34  58 W15       30.16R
MANSFIELD      CLOUDY    50  31  48 SW8       30.15R
YOUNGSTOWN     CLOUDY    44  28  53 SW5       30.15R
$$

OHZ042-051>053-060>062-070>072-077>081-011700-
  SOUTHWEST OHIO

CITY           SKY/WX    TMP DP  RH WIND       PRES   REMARKS
CINC-COVINGTON MOSUNNY   55  35  47 S7        30.17S
CINC-LUNKEN    SUNNY     55  35  47 SW8       30.18F
HAMILTON       SUNNY     58  35  42 VRB3      30.17F
DAYTON         SUNNY     54  37  52 S9        30.16S
WRIGHT-PAT AFB SUNNY     54  35  47 W6        30.16R
DAYTON GENERAL SUNNY     55  36  48 S8        30.16R
WILMINGTON     SUNNY     54  36  50 S10       30.16S
$$

OHZ036-037-039>041-045>050-054>059-063>069-073>076-082>088-011700-
  CENTRAL AND SOUTHEAST OHIO

CITY           SKY/WX    TMP DP  RH WIND       PRES   REMARKS
COLUMBUS       SUNNY     50  33  52 SW8       30.17S
OSU AIRPORT    SUNNY     53  34  48 S10       30.16S
BOLTON FIELD   SUNNY     50  36  57 SW9       30.17S
RICKENBACK AFB SUNNY     50  34  53 S9        30.17S
NEWARK         SUNNY     51  34  52 SW8       30.16S
MARION         SUNNY     51  34  52 SW12      30.15S
LANCASTER      SUNNY     53  34  48 SW8       30.17S
ZANESVILLE     SUNNY     50  28  42 VRB5      30.17R
NEW PHILLY     MOSUNNY   50  26  39 VRB7      30.16S
$$



USA.gov is the U.S. government's official web portal to all federal, state and local government web resources and services.